Probability
0 0 0 0 0 0 0 0 0 0 0 0 0 0 0 0 0 0 0 0 1 2 2 1 0 0 0 1 2 3 4 5 4 3 5 6 4 3 3 3 2 2 3 3
0 0 0 0 0 0 0 0 0 0 0 0 0 0 0 0 0 0 0 0 1 2 3 2 0 0 0 1 2 2 3 3 3 3 5 7 6 4 3 3 2 2 3 3
0 0 0 0 0 0 0 0 0 0 0 0 0 0 0 0 0 0 1 2 1 2 3 4 2 0 0 1 2 3 2 3 3 3 5 8 8 5 4 3 2 3 3 4
0 0 0 0 0 0 0 0 0 0 0 0 0 0 0 0 0 0 1 2 1 1 3 4 4 1 0 1 2 3 4 5 6 7 8 9 9 7 5 4 3 3 4 5
0 0 0 0 0 0 0 0 0 0 0 0 0 0 0 0 0 0 1 1 1 1 3 5 4 2 1 0 1 3 5 7 10 12 12 11 10 8 8 8 7 7 7 7
0 0 0 0 0 0 0 0 0 0 0 0 0 0 0 0 0 0 0 0 1 2 4 6 6 4 2 0 0 1 4 9 13 14 14 14 12 12 13 13 13 13 11 11
0 0 0 0 0 0 0 0 0 0 0 0 0 0 0 0 0 0 0 1 3 4 5 7 9 8 4 2 1 2 5 10 13 14 15 15 14 15 17 18 18 17 15 14
0 0 0 0 0 0 0 0 0 0 0 0 0 0 0 0 0 0 0 2 4 6 7 9 11 11 8 4 3 4 7 11 12 13 14 14 15 16 18 21 21 18 16 15
0 0 0 0 0 0 0 0 0 0 0 0 0 0 0 0 0 0 1 3 5 7 8 10 11 12 10 7 6 6 8 10 12 13 13 13 14 16 19 22 22 19 16 14
0 0 0 0 0 0 0 0 0 0 0 0 0 0 0 0 0 0 1 4 7 9 11 12 13 13 13 11 9 8 9 10 12 13 14 14 16 19 23 25 24 22 19 16
0 0 0 0 0 0 0 0 0 0 0 0 0 0 0 0 1 1 3 6 10 13 15 15 15 15 16 15 14 14 14 12 12 15 17 17 19 22 26 27 26 24 21 19
0 0 0 0 0 0 0 0 0 0 0 0 0 1 1 2 2 3 5 8 14 19 20 20 20 19 19 20 21 23 21 16 15 17 19 19 19 20 23 23 22 20 18 17
0 0 0 0 0 0 0 0 0 0 0 0 0 2 4 5 5 6 7 9 14 20 24 25 27 27 26 26 28 29 26 20 18 19 18 17 17 18 18 17 15 13 12 12
0 0 0 0 0 0 0 0 0 0 0 0 0 2 5 7 7 8 9 8 11 18 24 28 32 34 33 31 30 30 28 24 21 19 16 17 18 18 19 17 14 12 11 10
0 0 0 0 0 0 0 0 0 0 0 0 0 2 6 8 8 9 8 7 9 16 23 27 32 35 36 34 31 29 28 25 23 20 17 18 19 20 22 23 20 17 15 14
0 0 0 0 0 0 0 0 0 0 0 0 0 2 6 8 10 10 9 8 9 15 21 25 29 33 35 35 33 30 28 25 23 21 19 19 19 20 23 25 24 22 21 19
0 0 0 0 0 0 0 0 0 0 0 0 1 3 7 10 12 12 10 10 11 15 20 23 26 28 31 32 33 31 28 25 22 21 20 19 18 19 20 22 23 24 23 22
1 1 0 0 0 0 0 0 0 0 0 0 2 5 9 12 14 14 14 13 15 18 21 25 26 26 26 29 31 30 29 27 25 23 21 20 19 19 20 21 23 25 24 23
2 2 1 0 0 0 0 0 0 0 0 1 2 6 10 13 14 16 18 20 21 23 26 27 26 23 24 27 30 31 31 31 30 27 24 22 21 20 20 22 25 27 26 25
2 2 1 0 0 0 0 1 0 0 1 3 6 9 13 14 15 18 22 25 27 28 29 28 24 22 23 25 28 32 32 32 32 30 27 26 25 24 23 25 26 26 25 25
1 1 0 0 0 0 1 3 3 4 7 11 13 15 16 17 19 22 23 25 28 30 31 29 26 25 25 26 28 30 30 30 30 29 30 32 32 29 28 29 29 28 26 23
0 1 1 1 2 3 4 7 9 12 15 18 19 20 21 21 23 24 25 25 26 28 31 31 30 31 30 29 29 28 29 30 29 28 30 33 34 33 32 33 33 34 30 25
1 2 4 5 6 8 10 12 14 16 17 18 20 23 24 24 25 27 28 28 26 26 29 31 32 33 31 29 27 26 27 29 28 27 28 29 30 31 32 32 33 34 31 27
2 4 8 11 12 13 13 13 15 17 16 16 19 23 25 26 27 29 30 30 27 25 28 30 31 31 30 28 26 24 25 26 26 24 24 25 26 27 28 28 28 29 29 26
5 6 10 14 15 15 14 13 14 17 18 17 18 20 24 27 27 28 30 29 27 27 29 30 30 28 28 29 27 25 25 25 23 23 22 22 22 23 24 24 23 22 22 20
6 8 11 14 16 16 16 14 14 17 20 19 18 20 23 25 26 27 27 27 28 29 29 30 29 28 29 30 29 27 27 25 22 21 22 21 20 21 23 22 20 16 13 12
Wind_Speed
7 7 5 4 2 1 1 1 3 4 4 3 2 1 4 7 7 7 7 7 7 6 7 6 6 6 5 5 4 4 3 3 2 2 2 3 3 3 3 3 4 3 3 3
8 7 4 3 3 4 3 2 2 4 3 3 1 1 3 6 7 7 7 7 7 8 8 7 7 7 6 6 5 5 5 4 3 2 2 1 2 2 3 3 3 3 3 2
8 4 5 6 6 6 5 3 1 1 3 5 4 4 6 6 6 6 7 7 7 8 9 9 8 8 7 7 6 5 4 4 3 3 3 3 3 2 2 2 3 2 2 2
7 4 6 8 7 7 5 1 2 2 4 1 3 1 5 6 7 7 7 8 8 9 9 9 9 9 8 8 7 6 6 5 4 4 3 3 2 2 2 1 2 2 3 2
7 7 8 9 6 6 1 1 3 4 4 4 3 4 4 6 4 6 7 7 8 9 9 10 9 9 9 8 7 7 6 6 5 4 4 4 3 2 2 2 3 2 2 3
5 5 6 5 4 4 5 5 5 6 6 4 1 4 2 3 2 3 5 6 7 8 9 9 9 9 8 8 8 7 7 6 6 5 4 4 3 3 2 2 3 3 3 3
9 9 6 5 7 8 9 8 6 6 5 1 1 4 2 3 1 2 4 6 7 8 9 10 10 10 9 9 8 8 8 7 7 6 6 5 5 4 4 4 3 3 3 3
12 12 10 8 8 8 10 10 7 5 3 2 5 3 2 2 2 2 4 5 7 8 8 9 10 10 9 10 9 9 8 7 7 6 6 5 5 4 3 3 3 3 2 2
10 9 8 6 6 8 9 9 6 7 6 6 2 2 3 3 3 4 5 6 7 7 8 8 9 9 9 9 9 9 9 7 6 6 6 5 5 4 3 3 4 3 2 2
7 7 8 7 7 4 7 6 6 7 6 6 4 4 1 3 4 5 5 6 6 6 7 7 8 8 8 8 8 8 8 7 6 6 6 5 5 4 4 3 2 2 2 2
9 9 8 9 10 9 9 9 8 6 7 8 4 1 3 1 3 4 5 5 6 6 6 7 7 8 8 8 8 8 7 7 7 6 5 4 4 4 3 3 2 2 2 2
8 9 8 9 4 5 9 10 10 8 6 7 7 1 4 2 3 3 4 5 5 5 5 6 7 7 7 7 7 7 7 7 6 6 5 5 4 3 3 3 3 2 2 3
6 8 10 10 10 8 9 9 10 9 7 8 9 2 6 4 3 3 3 4 5 5 5 6 6 6 6 7 6 7 7 7 6 6 6 5 4 4 4 3 3 2 2 3
7 9 12 12 7 9 11 10 11 11 10 9 9 5 4 3 3 3 3 4 5 6 6 6 6 6 6 6 6 6 6 6 6 6 6 5 5 5 4 4 3 3 3 3
7 10 10 9 6 7 10 11 12 13 12 11 8 7 4 2 3 3 3 4 5 6 6 7 6 6 6 6 6 6 6 6 6 6 6 5 5 5 4 4 4 3 3 4
5 7 9 10 10 10 11 12 13 12 12 12 10 8 3 2 2 2 3 4 5 5 6 6 7 7 6 6 6 6 6 6 6 6 6 5 5 5 5 4 4 3 3 3
7 7 9 11 10 11 15 14 13 12 10 10 11 6 2 3 3 3 3 4 5 4 5 5 6 6 6 6 6 6 6 6 6 6 5 5 5 4 4 4 4 4 4 3
7 8 7 9 9 15 7 4 8 9 9 8 7 5 4 3 2 2 2 3 3 3 4 5 5 6 6 5 6 6 6 6 6 6 5 5 5 4 4 4 4 4 4 4
7 8 8 9 13 12 7 6 7 8 8 6 6 6 4 2 3 4 2 1 1 1 2 3 4 5 5 5 5 5 5 6 6 6 5 5 5 5 5 5 5 4 4 4
7 8 9 10 13 13 6 5 3 7 9 4 4 4 3 4 7 2 3 1 1 1 2 2 3 4 5 5 5 5 5 5 5 5 5 4 5 5 5 5 5 4 4 4
11 10 12 13 12 8 2 5 6 9 2 3 3 3 3 4 3 3 1 1 1 2 2 2 3 3 3 4 4 5 4 4 4 3 4 4 4 5 5 4 4 4 4 4
10 10 11 11 13 8 4 5 5 2 3 1 1 1 2 1 1 1 1 1 1 2 2 2 3 2 3 4 4 4 4 3 3 3 3 3 4 4 4 4 4 4 5 5
8 5 4 5 3 3 1 0 2 1 0 0 1 1 2 2 2 1 1 1 1 1 1 1 2 2 3 3 4 4 3 2 3 3 3 3 4 4 5 5 5 5 5 5
5 3 4 5 4 2 2 2 1 1 1 1 1 1 2 2 2 1 1 1 1 1 1 1 1 2 2 2 3 3 3 3 4 4 4 4 5 5 5 5 5 5 5 5
4 6 6 7 4 4 4 2 1 1 1 1 1 1 1 1 1 1 0 0 1 1 0 0 1 1 2 2 3 3 3 3 4 4 4 5 5 4 5 5 4 5 4 4
7 7 7 5 4 4 3 2 2 2 1 1 1 0 1 1 1 1 0 0 1 1 1 1 2 2 2 2 2 3 2 3 4 4 5 4 4 3 4 4 4 4 5 4
Wind_Direction
189 209 202 181 203 48 130 139 105 96 119 203 208 185 149 166 187 184 178 174 176 178 167 167 173 174 168 167 165 163 160 147 154 128 132 121 120 116 109 110 106 111 112 116
195 205 188 163 183 204 209 205 150 125 134 235 260 234 166 174 191 193 186 183 182 178 172 171 176 178 178 177 177 174 174 168 172 138 124 118 111 120 112 108 113 120 126 133
216 162 163 193 198 211 221 241 208 115 161 203 260 186 157 166 185 191 196 193 189 186 181 178 182 185 185 184 185 181 178 175 178 167 160 146 146 151 136 138 138 144 150 147
219 174 192 210 207 226 207 203 251 222 238 177 281 346 129 157 175 190 197 197 196 191 187 183 183 187 190 187 182 181 180 183 183 189 182 174 165 152 134 163 139 155 163 163
195 191 205 216 210 227 209 171 231 243 253 255 211 277 113 146 178 186 189 194 193 191 189 186 187 185 189 187 183 178 180 185 187 195 190 200 195 175 166 170 157 186 170 184
206 193 224 226 204 204 171 185 199 225 243 238 300 279 96 115 158 170 176 184 188 187 184 183 181 181 185 186 186 182 180 185 190 198 200 207 209 206 194 198 186 196 185 187
201 197 193 202 192 184 209 225 225 221 220 198 154 263 55 64 117 174 173 176 178 179 179 179 179 180 184 186 186 186 184 188 192 198 203 205 212 213 213 220 206 223 206 191
204 198 193 202 222 210 217 239 259 273 275 194 190 241 78 89 142 161 165 166 168 174 175 179 180 180 184 184 186 187 187 194 195 197 202 207 214 221 214 219 241 227 238 209
213 201 177 197 224 233 214 235 266 261 263 264 199 176 172 150 168 166 163 161 167 173 173 179 180 180 182 183 186 188 186 191 197 200 198 204 215 230 234 222 233 233 231 219
227 213 180 179 196 218 261 233 229 249 261 256 217 215 167 161 176 169 169 167 166 171 174 177 178 177 179 182 182 186 186 187 195 201 209 198 202 211 223 237 231 247 244 244
228 221 192 193 215 209 202 218 241 251 265 269 253 189 78 158 177 177 172 167 161 171 172 172 172 171 172 174 174 176 181 183 188 195 197 203 200 199 205 213 224 230 238 231
222 232 217 206 199 263 233 233 226 237 241 261 272 162 95 131 154 166 164 153 157 168 167 164 162 164 169 173 176 174 179 181 183 183 185 191 194 198 205 208 221 226 229 233
198 226 216 206 197 200 221 224 231 241 245 249 257 190 123 137 156 158 157 154 156 164 164 159 160 167 175 177 178 176 180 182 180 177 183 187 194 198 209 215 219 228 231 239
229 227 238 238 225 196 204 212 222 231 238 241 250 245 197 191 194 177 168 165 167 166 167 165 165 170 176 179 179 179 180 180 177 180 186 187 197 203 208 212 215 224 231 236
225 226 232 249 241 226 223 218 218 231 247 259 257 250 234 224 217 201 182 178 178 171 174 174 176 175 176 178 179 180 183 183 182 182 188 189 194 198 203 205 212 221 235 240
226 230 223 227 226 230 235 232 227 232 243 251 256 253 245 232 209 197 192 192 191 183 182 180 181 179 182 183 180 179 183 183 184 189 192 190 193 196 200 203 208 219 233 244
205 214 225 228 215 230 234 228 229 231 236 249 253 251 212 217 218 218 217 213 204 193 188 184 183 185 186 184 179 182 182 181 181 187 193 193 199 206 208 209 207 218 229 236
215 221 229 234 219 233 231 208 231 238 243 250 255 244 231 241 230 220 214 214 211 200 195 187 186 182 182 178 176 183 176 183 189 194 198 198 203 208 208 210 214 222 230 233
216 218 230 231 231 234 216 200 214 227 235 239 238 230 222 204 201 181 145 145 164 171 184 179 179 175 169 170 170 172 178 181 188 198 203 204 210 217 217 216 219 224 231 238
194 216 230 231 240 237 218 167 204 234 228 197 218 223 216 212 236 155 88 78 127 139 152 161 165 165 160 163 167 176 184 187 197 204 208 209 216 223 227 229 229 228 231 238
192 204 223 230 239 242 126 145 189 225 223 136 204 218 221 222 308 57 82 93 124 137 144 152 161 167 166 168 174 189 195 202 210 212 212 213 219 225 226 230 233 236 239 242
214 208 213 226 235 228 116 179 216 30 55 127 209 219 205 170 127 108 92 103 136 139 150 156 159 161 165 173 183 196 208 214 212 218 220 223 228 235 225 224 231 234 240 241
231 243 233 235 240 63 107 107 60 60 198 172 221 199 187 185 178 138 99 96 123 141 154 174 166 167 177 184 196 209 214 217 216 221 230 238 242 240 240 233 231 232 232 246
202 223 234 228 210 194 175 164 160 213 233 263 208 211 206 193 165 135 111 66 55 66 121 186 180 192 195 203 215 223 219 220 222 224 231 232 234 239 238 242 240 242 243 250
220 205 220 226 222 208 189 179 193 204 199 200 161 195 197 182 175 140 97 35 22 34 17 258 228 233 230 227 227 229 228 227 234 236 238 242 240 240 241 241 253 251 251 256
227 224 228 228 210 236 218 209 223 226 212 195 197 219 248 221 224 245 295 351 327 328 306 279 273 271 265 252 250 244 235 235 243 245 246 248 249 244 247 247 249 231 241 233